Weather History for Los Alamos, NM

Change the Weather History Date:

Tuesday, February 26, 2013

  Actual Average Record
Temperature  
Mean Temperature 30 °F -  
Max Temperature 36 °F 46 °F 68 °F (1986)
Min Temperature 25 °F 24 °F 10 °F (1960)
Degree Days  
Heating Degree Days 34    
Moisture  
Dew Point 3 °F    
Average Humidity 33    
Maximum Humidity 49    
Minimum Humidity 15    
Precipitation  
Precipitation 0.00 in - - ()
Sea Level Pressure  
Sea Level Pressure 29.87 in    
Wind  
Wind Speed 9 mph (West)    
Max Wind Speed 32 mph    
Max Gust Speed 46 mph    
Visibility 10 miles    
Events      
Averages and records for this station are not official NWS values.
T = Trace of Precipitation, MM = Missing Value Source: NWS Daily Summary

Daily Weather History Graph

Daily Weather History Graph

Search for Another Location

Airport:

Trip Planner

Search our weather history database for the weather conditions in past years. The results will help you decide how hot, cold, wet, or windy it might be!

Date:

Astronomy

Feb. 26, 2013 Rise Set
Actual Time 6:38 AM MST 5:57 PM MST
Civil Twilight 6:12 AM MST 6:23 PM MST
Nautical Twilight 5:43 AM MST 6:53 PM MST
Astronomical Twilight 5:13 AM MST 7:22 PM MST
Moon 7:12 PM MST (2/26) 6:46 AM MST (2/26)
Length of Visible Light 12h 10m
Length of Day
11h 19m
Full, 99% of the Moon is Illuminated
Feb 26
Full
Mar 4
Last Quarter
Mar 11
New
Mar 19
First Quarter
Mar 27
Full

Hourly Weather History & Observations

Time (MST) Temp. Windchill Dew Point Humidity Pressure Visibility Wind Dir Wind Speed Gust Speed Precip Events Conditions
12:15 AM 29.8 °F 26.3 °F 10.0 °F 44% 29.90 in - SE 3.5 mph - N/A   Clear
12:35 AM 29.8 °F - 9.5 °F 43% 29.90 in - Calm Calm - N/A   Clear
12:55 AM 28.9 °F 25.2 °F 10.2 °F 46% 29.90 in - South 3.5 mph - N/A   Clear
1:15 AM 29.5 °F - 10.4 °F 45% 29.90 in - Calm Calm - N/A   Clear
1:35 AM 29.3 °F - 10.4 °F 45% 29.90 in 10.0 mi Calm Calm - N/A   Clear
1:55 AM 29.5 °F 25.9 °F 10.2 °F 45% 29.88 in 10.0 mi SE 3.5 mph - N/A   Clear
2:15 AM 29.1 °F - 9.5 °F 44% 29.88 in 10.0 mi Calm Calm - N/A   Clear
2:35 AM 28.8 °F - 9.5 °F 45% 29.87 in 10.0 mi Calm Calm - N/A   Clear
2:55 AM 28.4 °F 24.6 °F 9.9 °F 46% 29.87 in 10.0 mi South 3.5 mph - N/A   Clear
3:15 AM 27.7 °F 21.3 °F 10.0 °F 48% 29.87 in 10.0 mi SW 5.8 mph - N/A   Clear
3:35 AM 28.6 °F 22.4 °F 9.1 °F 44% 29.87 in - SSW 5.8 mph - N/A   Clear
3:55 AM 27.3 °F 20.9 °F 9.0 °F 46% 29.86 in - SW 5.8 mph - N/A   Clear
4:15 AM 27.1 °F 23.2 °F 8.6 °F 46% 29.86 in 10.0 mi SSE 3.5 mph - N/A   Clear
4:35 AM 27.5 °F 23.6 °F 8.2 °F 44% 29.85 in 10.0 mi SE 3.5 mph - N/A   Clear
4:55 AM 25.9 °F 18.2 °F 8.4 °F 48% 29.85 in 10.0 mi SSE 6.9 mph - N/A   Clear
5:15 AM 26.6 °F 22.6 °F 8.4 °F 46% 29.85 in 10.0 mi WSW 3.5 mph - N/A   Clear
5:35 AM 28.0 °F 24.2 °F 7.7 °F 42% 29.84 in 10.0 mi SE 3.5 mph - N/A   Clear
5:55 AM 28.0 °F 22.8 °F 7.5 °F 42% 29.85 in 10.0 mi South 4.6 mph - N/A   Clear
6:15 AM 27.9 °F 19.8 °F 8.2 °F 44% 29.84 in 10.0 mi SSE 8.1 mph - N/A   Clear
6:35 AM 28.9 °F 22.8 °F 8.4 °F 42% 29.84 in 10.0 mi SSE 5.8 mph - N/A   Clear
6:55 AM 27.9 °F 22.6 °F 8.4 °F 44% 29.83 in 10.0 mi South 4.6 mph - N/A   Clear
7:15 AM 27.7 °F 21.3 °F 7.7 °F 43% 29.82 in 10.0 mi South 5.8 mph - N/A   Clear
7:35 AM 29.5 °F 21.8 °F 6.6 °F 38% 29.82 in 10.0 mi SW 8.1 mph - N/A   Clear
7:55 AM 30.9 °F 20.7 °F 6.1 °F 35% 29.82 in 10.0 mi West 13.8 mph - N/A   Clear
8:15 AM 32.9 °F 24.1 °F 3.7 °F 29% 29.82 in 10.0 mi WNW 11.5 mph 20.7 mph N/A   Clear
8:35 AM 32.9 °F 23.7 °F 3.7 °F 29% 29.82 in 10.0 mi WNW 12.7 mph 18.4 mph N/A   Clear
8:55 AM 33.1 °F 21.2 °F 3.9 °F 29% 29.82 in 10.0 mi West 20.7 mph 29.9 mph N/A   Clear
9:15 AM 33.1 °F 23.4 °F 3.7 °F 29% 29.82 in 10.0 mi West 13.8 mph 27.6 mph N/A   Clear
9:35 AM 34.0 °F 26.6 °F 4.1 °F 28% 29.82 in 10.0 mi WNW 9.2 mph 19.6 mph N/A   Clear
9:55 AM 35.2 °F 27.6 °F 3.7 °F 27% 29.82 in 10.0 mi West 10.4 mph 23.0 mph N/A   Clear
10:15 AM 35.6 °F 26.6 °F 2.3 °F 25% 29.82 in 10.0 mi West 13.8 mph 20.7 mph N/A   Clear
10:35 AM 35.6 °F 26.6 °F 3.0 °F 25% 29.81 in 10.0 mi West 13.8 mph 20.7 mph N/A   Clear
10:55 AM 35.6 °F 25.2 °F 3.7 °F 26% 29.81 in 10.0 mi West 18.4 mph 26.5 mph N/A   Clear
11:15 AM 35.4 °F 24.3 °F 1.2 °F 24% 29.82 in 10.0 mi West 20.7 mph 31.1 mph N/A   Clear
11:35 AM 36.3 °F 25.2 °F 0.9 °F 22% 29.81 in 10.0 mi West 21.9 mph 34.5 mph N/A   Clear
11:55 AM 35.6 °F 25.5 °F 3.7 °F 26% 29.81 in 10.0 mi WNW 17.3 mph 31.1 mph N/A   Scattered Clouds
12:15 PM 36.0 °F 26.0 °F 1.6 °F 23% 29.81 in 10.0 mi West 17.3 mph 26.5 mph N/A   Scattered Clouds
12:35 PM 35.6 °F 25.9 °F -1.5 °F 21% 29.80 in 10.0 mi WSW 16.1 mph 28.8 mph N/A   Scattered Clouds
12:55 PM 35.2 °F 23.8 °F -0.8 °F 22% 29.80 in 10.0 mi West 21.9 mph 27.6 mph N/A   Scattered Clouds
1:15 PM 34.2 °F 22.3 °F -0.0 °F 23% 29.81 in 10.0 mi West 21.9 mph 32.2 mph N/A   Clear
1:35 PM 34.0 °F 23.4 °F -3.3 °F 20% 29.81 in 10.0 mi West 17.3 mph 32.2 mph N/A   Clear
1:55 PM 33.1 °F 20.1 °F -9.9 °F 15% 29.81 in 10.0 mi WNW 25.3 mph 41.4 mph N/A   Scattered Clouds
2:15 PM 33.1 °F 20.1 °F -6.7 °F 18% 29.81 in 10.0 mi West 25.3 mph 33.4 mph N/A   Scattered Clouds
2:35 PM 32.5 °F 21.9 °F -0.4 °F 25% 29.82 in 10.0 mi NW 16.1 mph 36.8 mph N/A   Scattered Clouds
2:55 PM 31.8 °F 17.9 °F 1.4 °F 27% 29.83 in 10.0 mi West 27.6 mph 36.8 mph N/A   Overcast
3:15 PM 32.5 °F 20.5 °F -7.2 °F 18% 29.82 in 10.0 mi West 20.7 mph 34.5 mph N/A   Scattered Clouds
3:35 PM 32.0 °F 17.2 °F -1.3 °F 24% 29.84 in 10.0 mi West 32.2 mph 39.1 mph N/A   Scattered Clouds
3:55 PM 32.0 °F 17.2 °F 2.7 °F 29% 29.83 in 10.0 mi West 32.2 mph 41.4 mph N/A   Scattered Clouds
4:15 PM 31.5 °F 19.4 °F -2.4 °F 23% 29.84 in 10.0 mi West 19.6 mph 33.4 mph N/A   Clear
4:35 PM 31.1 °F 20.9 °F -2.0 °F 24% 29.83 in 10.0 mi West 13.8 mph 33.4 mph N/A   Clear
4:55 PM 30.4 °F 16.2 °F -3.1 °F 24% 29.83 in 10.0 mi West 26.5 mph 38.0 mph N/A   Clear
5:15 PM 30.0 °F 14.7 °F -5.4 °F 22% 29.83 in 10.0 mi WNW 31.1 mph 46.0 mph N/A   Clear
5:35 PM 29.3 °F 17.7 °F -2.6 °F 25% 29.85 in 10.0 mi West 16.1 mph 39.1 mph N/A   Clear
5:55 PM 29.3 °F 17.3 °F -3.6 °F 24% 29.86 in 10.0 mi WNW 17.3 mph 36.8 mph N/A   Clear
6:15 PM 28.9 °F 16.1 °F -3.1 °F 25% 29.87 in 10.0 mi WNW 19.6 mph 31.1 mph N/A   Clear
6:35 PM 28.4 °F 15.8 °F -1.7 °F 27% 29.88 in 10.0 mi WNW 18.4 mph 27.6 mph N/A   Clear
6:55 PM 28.2 °F 15.5 °F -1.7 °F 28% 29.90 in 10.0 mi WNW 18.4 mph 28.8 mph N/A   Clear
7:15 PM 27.9 °F 16.3 °F -1.5 °F 28% 29.91 in 10.0 mi WNW 15.0 mph 28.8 mph N/A   Clear
7:35 PM 27.7 °F 14.8 °F -1.7 °F 28% 29.91 in 10.0 mi WNW 18.4 mph 31.1 mph N/A   Clear
7:55 PM 27.5 °F 13.9 °F 0.9 °F 32% 29.92 in 10.0 mi WNW 20.7 mph 27.6 mph N/A   Clear
8:15 PM 27.5 °F 15.4 °F 2.3 °F 34% 29.93 in 10.0 mi WNW 16.1 mph 25.3 mph N/A   Mostly Cloudy
8:35 PM 27.5 °F 15.9 °F 2.3 °F 34% 29.94 in 10.0 mi WNW 15.0 mph 21.9 mph N/A   Mostly Cloudy
8:55 PM 27.5 °F - 3.0 °F 35% 29.96 in 10.0 mi Calm Calm - N/A   Overcast
9:15 PM 28.0 °F 22.8 °F 2.3 °F 33% 29.97 in 10.0 mi SE 4.6 mph - N/A   Overcast
9:55 PM 27.5 °F - 3.7 °F 36% 29.99 in 10.0 mi Calm Calm - N/A   Scattered Clouds
10:15 PM 27.5 °F 23.6 °F 4.8 °F 38% 30.00 in 10.0 mi North 3.5 mph - N/A   Clear
10:35 PM 27.1 °F 19.7 °F 4.8 °F 39% 30.01 in 10.0 mi North 6.9 mph - N/A   Clear
10:55 PM 26.6 °F 18.2 °F 5.4 °F 40% 30.01 in 10.0 mi NNW 8.1 mph - N/A   Clear
11:15 PM 27.5 °F 15.9 °F 6.3 °F 41% 30.02 in 10.0 mi North 15.0 mph 19.6 mph N/A   Clear
11:35 PM 26.6 °F 13.8 °F 8.2 °F 46% 30.03 in 10.0 mi NNW 17.3 mph 23.0 mph N/A   Scattered Clouds
11:55 PM 25.7 °F 14.6 °F 8.8 °F 49% 30.03 in 10.0 mi NNW 12.7 mph - N/A   Scattered Clouds